timestamp,wind_dir_avg,wind_spd_avg,wind_spd_max_dir,wind_spd_gust,battery_voltage,lat,long
2023-09-03 00:04:00+00:00,249.0,6.62,255.0,7.5,12.49,47.59359,-54.27349
2023-09-03 00:14:01+00:00,241.0,7.46,240.0,8.37,12.41,47.59359,-54.27349
2023-09-03 00:24:01+00:00,250.0,7.03,249.0,7.68,12.41,47.59359,-54.27349
2023-09-03 00:34:01+00:00,261.0,7.71,264.0,8.3,12.41,47.59359,-54.27349
2023-09-03 00:44:01+00:00,232.0,5.12,234.0,6.23,12.41,47.59359,-54.27349
2023-09-03 00:54:01+00:00,219.0,4.66,212.0,5.76,12.41,47.59359,-54.27349
2023-09-03 01:04:01+00:00,214.0,5.5,217.0,6.69,12.41,47.59359,-54.27349
2023-09-03 01:14:00+00:00,228.0,4.74,226.0,5.41,12.41,47.59359,-54.27349
2023-09-03 01:24:00+00:00,238.0,6.13,239.0,7.16,12.41,47.59359,-54.27349
2023-09-03 01:34:00+00:00,234.0,5.39,233.0,6.17,12.41,47.59359,-54.27349
2023-09-03 01:44:00+00:00,227.0,4.94,225.0,5.64,12.41,47.59359,-54.27349
2023-09-03 01:54:00+00:00,234.0,6.07,235.0,6.95,12.41,47.59359,-54.27349
2023-09-03 02:04:00+00:00,230.0,5.51,229.0,6.63,12.41,47.59359,-54.27349
2023-09-03 02:14:01+00:00,241.0,6.81,242.0,7.71,12.41,47.59359,-54.27349
2023-09-03 02:24:01+00:00,230.0,5.49,229.0,6.51,12.41,47.59359,-54.27349
2023-09-03 02:34:01+00:00,233.0,6.09,233.0,6.89,12.41,47.59359,-54.27349
2023-09-03 02:44:01+00:00,236.0,5.3,238.0,6.05,12.41,47.59359,-54.27349
2023-09-03 02:54:01+00:00,233.0,5.85,231.0,6.57,12.41,47.59359,-54.27349
2023-09-03 03:04:01+00:00,228.0,6.16,228.0,7.01,12.41,47.59359,-54.27349
2023-09-03 03:14:01+00:00,226.0,6.15,232.0,7.1,12.41,47.59359,-54.27349
2023-09-03 03:24:01+00:00,237.0,5.94,235.0,6.96,12.41,47.59359,-54.27349
2023-09-03 03:34:01+00:00,225.0,5.0,225.0,5.9,12.41,47.59359,-54.27349
2023-09-03 03:44:01+00:00,229.0,4.43,239.0,5.42,12.41,47.59359,-54.27349
2023-09-03 03:54:01+00:00,232.0,4.83,234.0,5.93,12.41,47.59359,-54.27349
2023-09-03 04:04:01+00:00,228.0,4.92,223.0,5.8,12.41,47.59359,-54.27349
2023-09-03 04:14:00+00:00,232.0,5.23,236.0,5.72,12.41,47.59359,-54.27349
2023-09-03 04:24:00+00:00,243.0,5.46,249.0,6.32,12.41,47.59359,-54.27349
2023-09-03 04:34:00+00:00,231.0,6.86,232.0,7.58,12.41,47.59359,-54.27349
2023-09-03 04:44:00+00:00,238.0,5.44,240.0,6.48,12.41,47.59359,-54.27349
2023-09-03 04:54:00+00:00,239.0,6.66,241.0,7.3,12.41,47.59359,-54.27349
2023-09-03 05:04:00+00:00,241.0,5.41,240.0,6.14,12.41,47.59359,-54.27349
2023-09-03 05:14:01+00:00,243.0,6.39,245.0,7.41,12.33,47.59359,-54.27349
2023-09-03 05:24:01+00:00,252.0,6.22,255.0,6.75,12.33,47.59359,-54.27349
2023-09-03 05:34:01+00:00,255.0,7.0,257.0,7.5,12.33,47.59359,-54.27349
2023-09-03 05:44:01+00:00,253.0,6.19,248.0,7.26,12.33,47.59359,-54.27349
2023-09-03 05:54:01+00:00,251.0,7.35,254.0,8.21,12.33,47.59359,-54.27349
2023-09-03 06:04:01+00:00,249.0,7.31,250.0,8.23,12.33,47.59359,-54.27349
2023-09-03 06:14:00+00:00,243.0,6.21,245.0,7.03,12.33,47.59359,-54.27349
2023-09-03 06:24:00+00:00,244.0,7.1,240.0,8.83,12.33,47.59359,-54.27349
2023-09-03 06:34:00+00:00,237.0,7.4,235.0,8.38,12.33,47.59359,-54.27349
2023-09-03 06:44:00+00:00,234.0,8.02,234.0,8.87,12.33,47.59359,-54.27349
2023-09-03 06:54:00+00:00,236.0,7.18,233.0,7.91,12.33,47.59359,-54.27349
2023-09-03 07:04:00+00:00,249.0,6.32,249.0,7.09,12.33,47.59359,-54.27349
2023-09-03 07:14:01+00:00,240.0,6.66,239.0,7.33,12.33,47.59359,-54.27349
2023-09-03 07:24:01+00:00,231.0,6.68,232.0,7.56,12.33,47.59359,-54.27349
2023-09-03 07:34:01+00:00,225.0,5.93,230.0,7.44,12.33,47.59359,-54.27349
2023-09-03 07:44:01+00:00,234.0,5.34,232.0,6.47,12.33,47.59359,-54.27349
2023-09-03 07:54:01+00:00,234.0,4.93,230.0,5.93,12.33,47.59359,-54.27349
2023-09-03 08:04:01+00:00,236.0,6.32,238.0,7.53,12.33,47.59359,-54.27349
2023-09-03 08:14:00+00:00,236.0,6.11,239.0,7.16,12.33,47.59359,-54.27349
2023-09-03 08:24:00+00:00,237.0,7.26,238.0,7.89,12.33,47.59359,-54.27349
2023-09-03 08:34:00+00:00,232.0,5.88,237.0,6.87,12.33,47.59359,-54.27349
2023-09-03 08:44:00+00:00,232.0,5.21,235.0,6.42,12.33,47.59359,-54.27349
2023-09-03 08:54:00+00:00,230.0,5.85,229.0,6.69,12.33,47.59359,-54.27349
2023-09-03 09:04:00+00:00,230.0,5.59,230.0,6.81,12.33,47.59359,-54.27349
2023-09-03 09:14:00+00:00,235.0,5.4,241.0,6.65,12.25,47.59359,-54.27349
2023-09-03 09:24:00+00:00,225.0,5.98,229.0,6.61,12.25,47.59359,-54.27349
2023-09-03 09:34:00+00:00,226.0,5.65,224.0,6.29,12.25,47.59359,-54.27349
2023-09-03 09:44:00+00:00,225.0,7.26,219.0,9.08,12.25,47.59359,-54.27349
2023-09-03 09:54:00+00:00,234.0,5.96,249.0,7.51,12.25,47.59359,-54.27349
2023-09-03 10:04:00+00:00,237.0,6.91,238.0,7.63,12.25,47.59359,-54.27349
2023-09-03 10:14:01+00:00,238.0,6.29,245.0,7.29,12.33,47.59359,-54.27349
2023-09-03 10:24:01+00:00,231.0,5.79,232.0,6.4,12.33,47.59359,-54.27349
2023-09-03 10:34:01+00:00,236.0,5.89,240.0,6.96,12.33,47.59359,-54.27349
2023-09-03 10:44:01+00:00,235.0,6.35,240.0,7.07,12.33,47.59359,-54.27349
2023-09-03 10:54:01+00:00,234.0,6.06,236.0,6.86,12.33,47.59359,-54.27349
2023-09-03 11:04:01+00:00,232.0,5.99,234.0,7.01,12.33,47.59359,-54.27349
2023-09-03 11:14:01+00:00,234.0,6.18,236.0,7.48,12.73,47.59359,-54.27349
2023-09-03 11:24:01+00:00,230.0,7.19,239.0,8.44,12.73,47.59359,-54.27349
2023-09-03 11:34:01+00:00,231.0,6.88,232.0,8.03,12.73,47.59359,-54.27349
2023-09-03 11:44:01+00:00,237.0,6.51,243.0,7.83,12.73,47.59359,-54.27349
2023-09-03 11:54:01+00:00,234.0,7.69,232.0,8.43,12.73,47.59359,-54.27349
2023-09-03 12:04:01+00:00,237.0,7.91,233.0,9.05,12.73,47.59359,-54.27349
2023-09-03 12:14:00+00:00,246.0,8.1,248.0,9.48,13.21,47.59359,-54.27349
2023-09-03 12:24:00+00:00,236.0,8.4,238.0,9.39,13.21,47.59359,-54.27349
2023-09-03 12:34:00+00:00,237.0,7.5,239.0,9.06,13.21,47.59359,-54.27349
2023-09-03 12:44:00+00:00,240.0,8.32,244.0,9.63,13.21,47.59359,-54.27349
2023-09-03 12:54:00+00:00,232.0,7.25,228.0,8.96,13.21,47.59359,-54.27349
2023-09-03 13:04:00+00:00,231.0,6.26,239.0,7.11,13.21,47.59359,-54.27349
2023-09-03 13:14:01+00:00,239.0,6.3,241.0,7.51,13.68,47.59359,-54.27349
2023-09-03 13:24:01+00:00,238.0,6.84,240.0,7.88,13.68,47.59359,-54.27349
2023-09-03 13:34:01+00:00,236.0,7.0,234.0,7.86,13.68,47.59359,-54.27349
2023-09-03 13:44:01+00:00,229.0,6.84,236.0,7.84,13.68,47.59359,-54.27349
2023-09-03 13:54:01+00:00,215.0,7.27,217.0,8.92,13.68,47.59359,-54.27349
2023-09-03 14:04:01+00:00,213.0,7.26,214.0,8.79,13.68,47.59359,-54.27349
2023-09-03 14:14:00+00:00,213.0,7.48,214.0,8.3,13.53,47.59359,-54.27349
2023-09-03 14:24:00+00:00,215.0,8.7,223.0,10.42,13.53,47.59359,-54.27349
2023-09-03 14:34:00+00:00,214.0,7.25,215.0,8.81,13.53,47.59359,-54.27349
2023-09-03 14:44:00+00:00,214.0,9.26,218.0,10.33,13.53,47.59359,-54.27349
2023-09-03 14:54:00+00:00,216.0,9.88,223.0,10.88,13.53,47.59359,-54.27349
2023-09-03 15:04:00+00:00,217.0,9.32,221.0,10.61,13.53,47.59359,-54.27349
2023-09-03 15:14:01+00:00,213.0,9.78,214.0,11.06,14.32,47.59359,-54.27349
2023-09-03 15:24:01+00:00,213.0,9.84,214.0,11.07,14.32,47.59359,-54.27349
2023-09-03 15:34:01+00:00,210.0,10.67,212.0,11.77,14.32,47.59359,-54.27349
2023-09-03 15:44:01+00:00,211.0,10.79,212.0,12.07,14.32,47.59359,-54.27349
2023-09-03 15:54:01+00:00,209.0,10.64,214.0,11.74,14.32,47.59359,-54.27349
2023-09-03 16:04:01+00:00,207.0,9.36,207.0,11.43,14.32,47.59359,-54.27349
2023-09-03 16:14:00+00:00,202.0,11.04,211.0,12.72,14.32,47.59359,-54.27349
2023-09-03 16:24:00+00:00,206.0,10.98,215.0,12.72,14.32,47.59359,-54.27349
2023-09-03 16:34:00+00:00,207.0,11.38,209.0,12.81,14.32,47.59359,-54.27349
2023-09-03 16:44:00+00:00,208.0,11.11,213.0,13.26,14.32,47.59359,-54.27349
2023-09-03 16:54:00+00:00,206.0,11.29,212.0,13.48,14.32,47.59359,-54.27349
2023-09-03 17:04:00+00:00,209.0,11.3,216.0,13.15,14.32,47.59359,-54.27349
2023-09-03 17:14:01+00:00,210.0,13.38,213.0,15.13,14.4,47.59359,-54.27349
2023-09-03 17:24:01+00:00,216.0,12.92,225.0,15.92,14.4,47.59359,-54.27349
2023-09-03 17:34:01+00:00,216.0,12.89,220.0,16.14,14.4,47.59359,-54.27349
2023-09-03 17:44:01+00:00,215.0,11.9,212.0,13.59,14.4,47.59359,-54.27349
2023-09-03 17:54:01+00:00,217.0,11.78,219.0,13.32,14.4,47.59359,-54.27349
2023-09-03 18:04:01+00:00,215.0,12.31,219.0,14.09,14.4,47.59359,-54.27349
2023-09-03 18:14:00+00:00,215.0,11.53,218.0,13.23,14.0,47.59359,-54.27349
2023-09-03 18:24:00+00:00,211.0,10.9,209.0,12.36,14.0,47.59359,-54.27349
2023-09-03 18:34:00+00:00,210.0,10.45,209.0,12.45,14.0,47.59359,-54.27349
2023-09-03 18:44:00+00:00,211.0,11.21,211.0,12.75,14.0,47.59359,-54.27349
2023-09-03 18:54:00+00:00,211.0,10.63,208.0,11.99,14.0,47.59359,-54.27349
2023-09-03 19:04:00+00:00,214.0,10.5,212.0,11.38,14.0,47.59359,-54.27349
2023-09-03 19:14:00+00:00,217.0,10.11,220.0,11.49,13.76,47.59359,-54.27349
2023-09-03 19:24:00+00:00,216.0,9.85,219.0,11.38,13.76,47.59359,-54.27349
2023-09-03 19:34:00+00:00,215.0,9.76,218.0,10.69,13.76,47.59359,-54.27349
2023-09-03 19:44:00+00:00,213.0,9.64,217.0,10.36,13.76,47.59359,-54.27349
2023-09-03 19:54:00+00:00,213.0,10.32,212.0,11.27,13.76,47.59359,-54.27349
2023-09-03 20:04:00+00:00,210.0,10.43,212.0,11.6,13.76,47.59359,-54.27349
2023-09-03 20:14:00+00:00,212.0,10.71,209.0,11.89,13.68,47.59359,-54.27349
2023-09-03 20:24:00+00:00,213.0,10.35,215.0,11.08,13.68,47.59359,-54.27349
2023-09-03 20:34:00+00:00,213.0,10.23,211.0,11.4,13.68,47.59359,-54.27349
2023-09-03 20:44:00+00:00,213.0,11.22,210.0,12.29,13.68,47.59359,-54.27349
2023-09-03 20:54:00+00:00,217.0,9.39,218.0,11.15,13.68,47.59359,-54.27349
2023-09-03 21:04:00+00:00,218.0,9.44,222.0,10.75,13.68,47.59359,-54.27349
2023-09-03 21:14:01+00:00,218.0,9.56,220.0,10.64,13.37,47.59359,-54.27349
2023-09-03 21:24:01+00:00,217.0,8.67,219.0,10.34,13.37,47.59359,-54.27349
2023-09-03 21:34:01+00:00,219.0,8.59,217.0,9.93,13.37,47.59359,-54.27349
2023-09-03 21:44:01+00:00,217.0,8.37,217.0,9.81,13.37,47.59359,-54.27349
2023-09-03 21:54:01+00:00,218.0,8.39,219.0,9.46,13.37,47.59359,-54.27349
2023-09-03 22:04:01+00:00,215.0,8.28,214.0,9.57,13.37,47.59359,-54.27349
2023-09-03 22:14:01+00:00,213.0,8.74,209.0,10.49,12.89,47.59359,-54.27349
2023-09-03 22:24:01+00:00,212.0,9.0,211.0,10.15,12.89,47.59359,-54.27349
2023-09-03 22:34:01+00:00,214.0,8.82,215.0,9.85,12.89,47.59359,-54.27349
2023-09-03 22:44:01+00:00,213.0,9.0,212.0,10.02,12.89,47.59359,-54.27349
2023-09-03 22:54:01+00:00,217.0,8.1,219.0,9.3,12.89,47.59359,-54.27349
2023-09-03 23:04:01+00:00,215.0,8.12,212.0,9.04,12.89,47.59359,-54.27349
2023-09-03 23:14:01+00:00,214.0,8.69,216.0,9.51,12.49,47.59359,-54.27349
2023-09-03 23:24:01+00:00,219.0,8.23,218.0,9.23,12.49,47.59359,-54.27349
2023-09-03 23:34:01+00:00,219.0,8.75,221.0,9.85,12.49,47.59359,-54.27349
2023-09-03 23:44:01+00:00,221.0,7.95,226.0,9.4,12.49,47.59359,-54.27349
2023-09-03 23:54:01+00:00,223.0,8.12,222.0,9.16,12.49,47.59359,-54.27349
